Regional Weather Roundup
Issued by NWS

Home | Current Version | Previous Version | Text Only | Print | Product List | Glossary On
Versions: 1 2 3 4 5 6 7 8 9 10 11 12 13 14 15 16 17 18 19 20 21 22 23 24 25 26 27 28 29 30 31 32 33 34 35 36 37 38 39 40 41 42 43 44 45 46 47 48 49 50
000
ASUS43 KLMK 271202
RWRKY
KENTUCKY REGIONAL WEATHER ROUNDUP
NATIONAL WEATHER SERVICE LOUISVILLE KY
800 AM EDT TUE SEP 27 2016

NOTE "FAIR" INDICATES FEW OR NO CLOUDS BELOW 12,000 FEET
WITH NO SIGNIFICANT WEATHER AND/OR OBSTRUCTIONS TO VISIBILITY.

KYZ001>023-026-027-061>063-070>075-271300-
WESTERN AND SOUTH CENTRAL KENTUCKY

CITY           SKY/WX    TMP DP  RH WIND       PRES   REMARKS
PADUCAH        CLEAR     45  43  93 CALM      30.04F FOG
HENDERSON      CLEAR     46  41  81 SW3       30.03S
OWENSBORO      CLEAR    N/A N/A N/A CALM      30.04S
HOPKINSVILLE   FOG       48  48 100 CALM      30.04F VSB<1/4
BOWLING GREEN  FOG       49  47  93 CALM      30.05S VSB<1/4
GLASGOW        NOT AVBL
$$

KYZ024-025-028>034-038-045-046-053-271300-
NORTH CENTRAL KENTUCKY

CITY           SKY/WX    TMP DP  RH WIND       PRES   REMARKS
LOUISVILLE/SDF PTCLDY    54  49  83 SW5       30.02S
LOUISVILLE/LOU CLEAR     51  48  89 CALM      30.03S
FORT KNOX      FOG       47  46  99 CALM      30.02S VSB<1/4
$$

KYZ035>037-039>044-047>052-055>060-089>105-271300-
NORTHEAST KENTUCKY

CITY           SKY/WX    TMP DP  RH WIND       PRES   REMARKS
LEXINGTON      CLEAR     50  48  93 S6        30.04R
COVINGTON      CLEAR     49  48  97 S6        30.00S
FRANKFORT      CLEAR     49  46  90 CALM      30.02S
$$

KYZ054-064>069-076>088-106>120-271300-
SOUTHEAST KENTUCKY

CITY           SKY/WX    TMP DP  RH WIND       PRES   REMARKS
JACKSON        FOG       51  50  96 CALM      30.05S VSB<1/4
LONDON         FOG       46  44  93 CALM      30.06F VSB<1/4
SOMERSET       FOG       50  50 100 CALM      30.08S VSB<1/4
MIDDLESBORO    CLOUDY    60  54  80 CALM      30.05F
MONTICELLO     FOG       48  48 100 CALM      30.08F VSB<1/4
$$





USA.gov is the U.S. government's official web portal to all federal, state and local government web resources and services.